Jacksonville, FL

5:43 AM EDT on June 28, 2017 (GMT -0400)
Jacksonville International

Weather History for KJAX - January, 2013

Change the Weather History Date:

Tuesday, January 29, 2013

  Actual Average Record
Temperature  
Mean Temperature 67 °F 54 °F  
Max Temperature 79 °F 66 °F 84 °F (1957)
Min Temperature 54 °F 42 °F 22 °F (1897)
Degree Days  
Heating Degree Days 0 11  
Month to date heating degree days 164 360  
Since 1 July heating degree days 640 856  
Cooling Degree Days 2 0  
Month to date cooling degree days 35 0  
Year to date cooling degree days 35 0  
Growing Degree Days 16 (Base 50)    
Moisture  
Dew Point 60 °F    
Average Humidity 79    
Maximum Humidity 100    
Minimum Humidity 58    
Precipitation  
Precipitation 0.00 in 0.11 in 1.63 in (2009)
Month to date precipitation 0.82 3.07  
Year to date precipitation 0.82 3.07  
Snow  
Snow 0.00 in 0.00 in 0.00 in (2002)
Month to date snowfall 0.0 0.0  
Since 1 July snowfall 0.0 T  
Snow Depth 0.00 in    
Sea Level Pressure  
Sea Level Pressure 30.20 in    
Wind  
Wind Speed 6 mph (SE)    
Max Wind Speed 14 mph    
Max Gust Speed 17 mph    
Visibility 8 miles    
Events      
T = Trace of Precipitation, MM = Missing Value Source: NWS Daily Summary

Daily Weather History Graph

Daily Weather History Graph

Search for Another Location

Airport or City:

Trip Planner

Search our weather history database for the weather conditions in past years. The results will help you decide how hot, cold, wet, or windy it might be!

Date:

Astronomy

Jan. 29, 2013 Rise Set
Actual Time 7:19 AM EST 6:00 PM EST
Civil Twilight 6:54 AM EST 6:26 PM EST
Nautical Twilight 6:25 AM EST 6:55 PM EST
Astronomical Twilight 5:56 AM EST 7:23 PM EST
Moon 8:39 PM EST (1/29) 8:29 AM EST (1/29)
Length of Visible Light 11h 32m
Length of Day
10h 41m
Waning Gibbous, 94% of the Moon is Illuminated
Jan 29
Waning Gibbous
Feb 3
Last Quarter
Feb 10
New
Feb 17
First Quarter
Feb 25
Full

Hourly Weather History & Observations

Time (EST) Temp. Dew Point Humidity Pressure Visibility Wind Dir Wind Speed Gust Speed Precip Events Conditions
12:56 AM 60.1 °F 57.9 °F 93% 30.27 in 7.0 mi Calm Calm - N/A   Mostly Cloudy
1:56 AM 57.9 °F 57.0 °F 97% 30.25 in 6.0 mi Calm Calm - N/A   Scattered Clouds
2:56 AM 59.0 °F 57.9 °F 96% 30.24 in 5.0 mi Calm Calm - N/A   Scattered Clouds
3:56 AM 57.9 °F 57.0 °F 97% 30.23 in 5.0 mi Calm Calm - N/A   Scattered Clouds
4:56 AM 55.9 °F 55.0 °F 97% 30.22 in 6.0 mi Calm Calm - N/A   Scattered Clouds
5:21 AM 55.4 °F 55.4 °F 100% 30.22 in 4.0 mi Calm Calm - N/A   Mostly Cloudy
5:56 AM 57.0 °F 55.9 °F 96% 30.23 in 7.0 mi Calm Calm - N/A   Mostly Cloudy
6:02 AM 55.4 °F 55.4 °F 100% 30.23 in 7.0 mi Calm Calm - N/A   Scattered Clouds
6:22 AM 55.4 °F 55.4 °F 100% 30.23 in 2.0 mi Calm Calm - N/A   Mostly Cloudy
6:33 AM 55.4 °F 53.6 °F 94% 30.24 in 4.0 mi Calm Calm - N/A   Mostly Cloudy
6:42 AM 55.4 °F 53.6 °F 94% 30.24 in 4.0 mi Calm Calm - N/A   Scattered Clouds
6:56 AM 55.9 °F 55.9 °F 100% 30.25 in 3.0 mi Calm Calm - N/A   Scattered Clouds
7:22 AM 55.4 °F 55.4 °F 100% 30.24 in 2.0 mi Calm Calm - N/A   Scattered Clouds
7:43 AM 55.4 °F 55.4 °F 100% 30.25 in 4.0 mi Calm Calm - N/A   Scattered Clouds
7:56 AM 55.9 °F 55.9 °F 100% 30.25 in 6.0 mi Calm Calm - N/A   Partly Cloudy
8:56 AM 63.0 °F 62.1 °F 97% 30.25 in 6.0 mi Calm Calm - N/A   Partly Cloudy
9:56 AM 70.0 °F 63.0 °F 78% 30.25 in 10.0 mi SSE 9.2 mph - N/A   Scattered Clouds
10:56 AM 75.0 °F 64.0 °F 69% 30.25 in 10.0 mi SE 8.1 mph - N/A   Scattered Clouds
11:56 AM 78.1 °F 63.0 °F 60% 30.22 in 10.0 mi South 10.4 mph - N/A   Scattered Clouds
12:56 PM 77.0 °F 62.1 °F 60% 30.18 in 10.0 mi ESE 9.2 mph - N/A   Scattered Clouds
1:56 PM 77.0 °F 62.1 °F 60% 30.15 in 10.0 mi SE 9.2 mph - N/A   Mostly Cloudy
2:56 PM 77.0 °F 64.0 °F 64% 30.14 in 10.0 mi ESE 10.4 mph - N/A   Mostly Cloudy
3:56 PM 77.0 °F 64.0 °F 64% 30.13 in 10.0 mi East 9.2 mph - N/A   Scattered Clouds
4:56 PM 75.0 °F 63.0 °F 66% 30.12 in 10.0 mi ESE 11.5 mph - N/A   Scattered Clouds
5:56 PM 71.6 °F 64.4 °F 78% 30.12 in 10.0 mi SE 11.5 mph - N/A   Scattered Clouds
6:56 PM 69.8 °F 64.4 °F 83% 30.12 in 10.0 mi SE 10.4 mph - N/A   Scattered Clouds
7:56 PM 68.0 °F 64.0 °F 87% 30.12 in 10.0 mi SE 9.2 mph - N/A   Partly Cloudy
8:56 PM 68.0 °F 64.0 °F 87% 30.11 in 10.0 mi SSE 6.9 mph - N/A   Partly Cloudy
9:56 PM 68.0 °F 64.0 °F 87% 30.11 in 10.0 mi SSE 9.2 mph - N/A   Clear
10:56 PM 66.9 °F 63.0 °F 87% 30.12 in 10.0 mi SSE 8.1 mph - N/A   Clear
11:56 PM 68.0 °F 63.0 °F 84% 30.12 in 10.0 mi South 8.1 mph - N/A   Mostly Cloudy